SCP
6 5 4 4 4 5 7 8 8 7 6 6 7 7 6 6 6 6 6 6 6 5 4 4 4 3 3 3 3 3 2 2 2 2 2 1 1 1 2 2 2 2 2
6 5 4 4 4 4 5 6 7 7 7 7 8 8 7 7 7 7 7 6 6 6 5 4 4 4 3 3 3 3 3 2 2 2 1 1 1 1 2 2 2 2 2
5 4 4 4 3 4 4 5 6 7 7 7 8 9 9 8 7 8 8 7 7 6 5 5 4 4 4 4 4 3 3 2 1 1 1 1 1 1 2 2 2 2 2
3 3 3 3 3 4 4 5 6 6 7 8 9 10 9 8 7 8 8 7 6 6 5 5 5 4 4 4 3 3 2 1 1 1 2 2 2 2 2 2 2 2 2
2 3 3 3 3 4 4 5 6 6 7 7 8 8 7 7 7 7 7 6 6 5 5 5 5 4 3 4 3 2 1 1 1 1 2 2 2 2 2 1 2 2 2
2 2 2 2 3 3 4 4 5 5 5 6 7 6 6 6 7 7 6 6 5 4 4 4 3 3 2 3 3 2 1 1 1 1 2 2 2 2 2 2 1 1 2
1 1 1 2 2 2 3 3 4 4 4 4 5 5 5 5 6 6 6 5 4 4 3 2 2 2 2 2 2 1 1 1 1 1 1 1 2 2 1 1 1 1 1
0 1 1 1 1 1 2 2 3 3 3 4 4 4 4 5 5 5 5 4 4 3 2 2 2 2 1 1 1 1 1 1 1 1 1 1 1 1 1 1 1 1 1
0 0 1 1 1 1 1 1 2 2 3 3 3 3 4 4 4 4 4 4 3 2 2 2 1 1 1 1 1 1 1 1 1 1 1 1 1 1 0 0 0 0 0
0 0 1 1 1 1 1 1 2 2 2 2 2 3 3 3 3 3 3 3 3 2 2 1 1 1 1 1 1 1 1 1 1 1 1 1 1 1 0 0 0 0 0
0 0 0 1 1 1 1 1 1 2 2 2 2 2 3 3 3 3 2 2 2 2 1 1 1 1 0 0 1 1 1 1 1 1 0 0 0 1 1 0 0 0 0
0 0 0 1 1 1 1 1 1 2 2 2 2 2 2 2 2 2 1 1 1 1 1 0 0 0 0 1 1 0 0 0 0 0 0 0 0 1 1 1 1 0 0
0 0 0 0 1 1 1 1 1 1 2 2 2 2 2 2 1 1 1 0 0 0 0 0 0 0 1 1 0 0 0 0 0 0 0 0 0 0 1 1 1 1 0
0 0 0 0 1 1 1 1 1 1 2 2 2 1 1 1 1 0 0 0 0 0 0 0 0 0 0 0 0 0 0 0 0 0 0 0 0 0 0 0 0 0 1
0 0 0 0 0 0 0 0 1 1 1 1 1 1 1 0 0 0 0 0 0 0 0 0 0 0 0 0 0 0 0 0 0 0 0 0 0 0 0 0 0 0 0
0 0 0 0 0 0 0 0 0 0 0 0 1 1 0 0 0 0 0 0 0 0 0 0 0 0 0 0 0 0 0 0 0 0 0 0 0 0 0 0 0 0 0
0 0 0 0 0 0 0 0 0 0 0 0 0 0 0 0 0 0 0 0 0 0 0 0 0 0 0 0 0 0 0 0 0 0 0 0 0 0 0 0 0 0 0
0 0 0 0 0 0 0 0 0 0 0 0 0 0 0 0 0 0 0 0 0 0 0 0 0 0 0 0 0 0 0 0 0 0 0 0 0 0 0 0 0 0 0
0 0 0 0 0 0 0 0 0 0 0 0 0 0 0 0 0 0 0 0 0 0 0 0 0 0 0 0 0 0 0 0 0 0 0 0 0 0 0 0 0 0 0
0 0 0 0 0 0 0 0 0 0 0 0 0 0 0 0 0 0 0 0 0 0 0 0 0 0 0 0 0 0 0 0 0 0 0 0 0 0 0 0 0 0 0
1 1 0 0 0 0 0 0 0 0 0 0 0 0 0 0 0 0 0 0 0 0 0 0 0 0 0 0 0 0 0 0 0 0 0 0 0 0 0 0 0 0 0
1 1 1 1 1 0 0 0 0 0 0 0 0 0 0 0 0 0 0 0 0 0 0 0 0 0 0 0 0 0 0 0 0 0 0 0 0 0 0 0 0 0 0
1 1 1 1 1 0 0 0 0 0 0 0 0 0 0 0 0 0 0 0 0 0 0 0 0 0 0 0 0 0 0 0 0 0 0 0 0 0 0 0 0 0 0
1 1 1 1 1 0 0 0 0 0 0 0 0 0 0 0 0 0 0 0 0 0 0 0 0 0 0 0 0 0 0 0 0 0 0 0 0 0 0 0 0 0 0
1 1 1 1 1 0 0 0 0 0 0 0 0 0 0 0 0 0 0 0 0 0 0 0 0 0 0 0 0 0 0 0 0 0 0 0 0 0 0 0 0 0 0
1 1 1 1 1 0 0 0 0 0 0 0 0 0 0 0 0 0 0 0 0 0 0 0 0 0 0 0 0 0 0 0 0 0 0 0 0 0 0 0 0 0 0
Wind_Speed
2 0 3 6 7 8 8 9 9 9 8 7 7 8 8 8 7 6 6 5 5 5 5 6 5 5 6 6 7 7 8 8 8 9 11 11 13 12 10 11 11 11 11
2 1 2 4 7 8 9 9 10 10 10 8 7 6 6 6 5 4 3 4 4 4 4 5 5 4 5 6 6 6 6 8 7 8 9 10 10 8 8 8 9 9 8
4 3 2 1 3 4 6 7 8 9 10 10 7 6 6 5 5 5 4 4 3 2 2 3 3 4 5 5 5 6 8 8 7 7 7 8 9 9 7 7 7 7 7
5 5 4 4 4 4 5 5 6 7 7 8 9 11 9 9 9 6 5 6 6 6 5 5 4 5 5 4 5 5 5 7 8 6 6 8 9 8 8 8 6 6 7
6 6 6 6 5 5 4 4 4 5 6 8 9 10 10 9 6 6 8 8 7 7 6 6 5 5 4 4 4 3 5 5 7 6 6 7 7 9 7 10 9 7 7
5 5 6 6 6 6 5 5 4 4 4 6 7 9 10 9 8 8 8 7 5 6 7 6 5 5 4 3 3 3 4 4 5 6 5 6 6 6 6 7 9 8 7
6 6 7 7 7 7 6 6 6 5 5 6 7 8 9 9 9 9 8 7 6 6 7 6 4 4 4 3 3 4 3 3 4 4 4 4 4 5 5 6 7 7 6
6 7 8 8 8 8 7 7 7 7 6 6 6 6 6 5 5 6 6 6 5 4 5 5 4 4 4 4 3 4 3 2 3 3 4 3 3 4 4 4 5 6 4
7 8 9 9 9 9 8 8 8 7 6 5 5 4 5 4 4 5 6 5 5 4 5 5 5 4 4 4 4 3 3 3 3 3 3 3 3 3 3 3 4 5 5
8 9 9 9 9 8 8 7 6 6 5 4 3 2 2 3 4 5 5 5 5 4 4 4 4 4 4 4 4 3 1 2 2 2 3 4 4 3 3 4 3 3 4
8 8 8 8 8 7 7 5 5 4 3 3 2 1 1 2 2 3 4 4 4 4 4 3 3 3 3 2 2 1 1 0 1 2 3 4 5 5 4 4 4 4 4
7 7 7 7 6 6 5 4 3 2 2 1 1 1 2 3 3 3 3 3 3 3 3 3 3 3 3 2 2 2 3 3 4 5 5 6 5 6 6 5 5 4 4
7 6 6 5 5 4 3 2 1 0 1 0 1 2 3 3 3 2 2 3 3 3 3 3 4 4 4 4 4 5 6 6 6 6 7 7 7 7 7 7 7 5 5
6 6 5 4 4 3 3 2 1 1 1 1 3 4 4 4 3 3 3 3 3 4 5 5 5 5 6 6 6 7 7 8 8 8 8 8 9 8 8 7 8 7 6
7 6 5 5 4 3 3 2 2 2 2 2 4 5 5 5 5 5 5 4 4 5 5 6 6 6 6 6 7 8 9 9 9 8 9 9 9 10 9 9 10 9 8
7 6 5 5 5 4 4 4 3 3 4 4 5 6 7 7 7 7 6 5 5 5 6 6 7 8 8 8 7 6 9 9 9 8 7 8 7 6 6 8 10 11 10
7 6 6 6 6 5 5 5 4 4 4 5 6 8 8 9 9 9 8 7 6 6 7 7 9 9 8 7 7 6 8 9 8 8 7 7 8 6 6 5 5 8 8
8 7 6 6 6 6 6 5 5 5 5 5 6 7 8 9 9 9 9 8 7 6 7 8 9 9 8 6 5 3 8 9 8 8 7 7 8 9 8 6 7 8 9
7 6 6 7 6 7 6 6 6 6 6 6 6 7 8 8 9 9 9 8 7 7 7 8 9 9 8 3 1 2 7 6 7 7 8 7 8 10 11 5 6 7 5
7 6 6 7 7 7 7 7 7 7 7 6 7 7 8 8 9 9 9 8 7 7 7 8 8 9 8 4 1 6 3 5 4 5 7 11 9 9 11 7 7 7 7
8 8 8 8 8 8 7 8 7 7 6 6 7 7 7 7 8 8 8 8 8 8 7 8 7 7 7 5 1 5 1 2 2 3 5 8 8 8 8 7 7 6 8
10 11 9 9 8 8 8 9 8 6 6 6 7 8 8 7 8 8 8 8 8 9 8 8 8 7 6 5 5 4 5 6 3 3 5 7 5 7 7 7 7 9 9
11 11 11 11 10 10 10 10 8 7 7 8 9 8 9 7 8 9 9 9 9 8 8 8 8 7 7 7 5 4 3 4 2 5 7 4 1 3 4 5 6 7 6
13 13 13 12 11 11 11 10 8 8 9 9 9 9 9 9 8 7 8 9 9 8 8 7 7 8 8 8 8 7 6 6 5 5 6 4 2 1 2 1 1 4 6
12 14 14 13 13 12 12 11 9 10 10 10 9 9 9 8 8 8 5 6 6 5 6 7 7 8 8 6 4 2 4 3 3 3 6 5 4 2 2 3 4 5 5
12 14 15 15 14 13 13 12 11 11 11 10 10 9 8 8 8 8 7 7 5 6 4 4 1 5 8 12 8 6 5 3 1 4 4 3 2 2 3 3 3 4 5
Wind_Direction
29 240 215 217 217 215 215 216 220 216 216 219 224 228 234 240 244 251 256 258 265 269 266 267 267 268 267 269 271 274 277 275 277 279 280 274 266 260 261 263 269 267 260
55 81 193 204 212 213 215 218 218 219 218 221 223 229 239 242 234 232 239 246 251 264 271 273 272 270 270 268 274 278 281 281 277 282 292 289 280 258 254 256 256 263 265
26 26 5 303 258 242 240 238 231 226 226 228 227 227 226 227 221 214 214 217 221 235 263 262 267 271 271 272 278 275 272 279 281 270 275 292 299 319 288 275 266 266 270
27 18 3 349 327 309 289 272 260 248 238 233 229 225 223 226 225 212 203 197 194 198 205 219 233 249 260 265 265 268 274 273 278 276 260 265 286 289 294 282 274 268 262
25 12 360 348 340 326 310 291 275 266 255 248 240 232 232 232 225 214 205 196 191 195 196 204 218 226 242 252 269 278 275 273 278 287 285 280 273 261 268 286 293 288 274
9 358 346 339 334 330 323 308 288 275 261 250 244 240 239 236 225 215 206 193 181 181 184 191 203 220 233 235 251 267 265 280 288 289 287 289 289 291 281 283 291 289 283
341 338 334 330 325 322 320 312 300 286 271 259 249 244 241 238 228 216 203 188 180 179 176 182 191 214 225 235 245 246 273 285 298 298 305 308 308 307 299 292 297 294 294
313 316 317 317 313 310 309 303 296 287 280 272 262 252 241 230 218 201 186 177 176 168 162 171 187 204 219 229 233 247 244 266 284 305 321 315 339 337 336 326 316 308 304
298 300 304 305 303 302 302 300 294 288 284 279 273 259 242 223 194 173 167 158 156 154 162 172 188 202 214 229 242 243 258 267 275 289 302 324 347 339 349 350 345 329 324
294 297 298 296 295 296 298 299 295 294 287 271 255 237 227 198 172 162 152 148 146 145 161 179 186 199 209 217 239 233 218 275 300 314 339 337 345 346 338 337 338 330 322
296 299 299 298 294 292 294 292 292 298 296 283 260 231 184 150 149 139 137 139 136 146 161 176 176 184 190 196 214 232 160 41 43 17 23 19 9 357 352 350 347 344 330
295 300 303 301 297 296 297 292 286 296 295 266 226 189 146 132 132 130 131 129 131 146 145 158 160 162 151 147 144 114 97 87 75 62 51 37 32 22 13 358 1 355 336
288 298 299 297 292 292 293 283 282 307 295 250 164 147 130 121 110 105 110 123 131 131 132 144 141 133 128 119 106 99 93 85 76 67 59 48 39 29 28 14 11 3 4
283 291 291 280 274 270 267 257 215 203 221 179 140 137 132 131 135 140 133 132 142 143 142 138 130 126 117 110 106 102 96 90 81 70 60 50 42 30 21 28 24 18 19
280 284 281 270 255 239 232 228 219 203 202 182 167 160 158 157 159 155 150 154 156 143 136 131 124 117 108 94 102 109 101 95 88 80 73 64 55 41 25 27 24 21 21
278 276 263 250 237 229 223 218 230 221 208 194 185 173 168 167 166 163 159 156 148 135 132 122 113 102 86 63 55 94 102 95 89 82 79 89 74 84 81 61 47 32 27
273 267 254 242 233 225 221 227 228 229 223 201 187 179 176 171 171 167 162 157 150 141 130 120 110 100 90 79 72 68 100 93 81 71 60 58 58 34 59 103 122 72 50
264 258 249 238 229 223 217 227 231 230 222 206 189 178 176 171 168 167 161 153 149 142 133 126 117 113 107 97 93 91 100 90 82 71 64 60 53 30 1 37 53 57 52
257 254 244 235 225 223 221 227 232 229 220 207 193 182 177 171 170 169 160 153 150 144 142 132 131 126 126 127 140 265 114 102 88 72 54 40 51 17 346 23 44 42 58
231 230 228 224 218 218 220 232 237 229 221 204 186 174 174 175 172 162 157 154 151 148 147 136 140 137 132 133 301 298 132 112 114 109 100 66 36 17 2 26 36 35 23
212 211 216 215 215 212 216 233 239 230 219 193 176 167 167 169 165 159 157 158 158 152 144 139 141 137 131 139 79 336 345 92 91 85 81 70 37 31 21 24 40 4 321
207 203 205 208 207 209 216 231 236 224 208 191 179 168 168 172 162 163 164 164 157 155 152 150 151 143 141 122 111 59 36 357 70 59 72 79 55 53 42 43 9 326 316
210 201 201 204 203 205 217 232 228 212 205 196 185 174 171 174 170 173 169 168 174 177 169 169 168 158 144 125 117 106 78 11 42 70 67 75 133 191 110 62 341 337 5
209 200 199 203 203 204 213 226 222 206 205 199 187 178 177 180 178 183 180 182 184 182 175 178 175 163 161 162 164 164 162 169 163 139 138 176 238 212 82 188 342 32 28
210 200 199 202 203 201 207 214 210 203 205 198 189 187 186 185 181 189 179 198 186 176 183 184 182 176 177 141 92 190 163 160 111 166 175 174 167 159 86 64 42 20 21
212 204 202 201 200 198 202 206 203 202 205 199 194 193 193 183 187 179 164 65 66 89 72 33 309 136 122 127 119 99 89 81 14 254 174 149 128 74 51 31 36 38 26